AXM6188 WBGG-WBGR

Flight info

Callsign AXM6188
Flight time 0h 49m
Altitude 35000
Route KIKAK1J KIKAK DCT PILAX G580 SARVO DCT BIPAS BIPAS1E
Aircraft A20N/M-SDE2E3FGHIRWXY/LB1

Departure

Time 2026-05-04 13:21
Airport Kuching International Airport (WBGG)

Arrival

Time 2026-05-04 14:10
Airport Miri Airport (WBGR)
Time Latitude Longitude Altitude Speed Heading
2026-05-04 13:00 1.48709 110.34353 77 ft 0 kts 338°
2026-05-04 13:01 1.48705 110.34355 77 ft 1 kts 338°
2026-05-04 13:01 1.48698 110.34357 69 ft 1 kts 338°
2026-05-04 13:01 1.48691 110.34360 69 ft 1 kts 338°
2026-05-04 13:02 1.48685 110.34363 73 ft 1 kts 338°
2026-05-04 13:02 1.48678 110.34366 70 ft 1 kts 338°
2026-05-04 13:02 1.48665 110.34370 70 ft 2 kts 335°
2026-05-04 13:02 1.48652 110.34378 70 ft 2 kts 317°
2026-05-04 13:03 1.48642 110.34389 71 ft 2 kts 298°
2026-05-04 13:03 1.48637 110.34403 77 ft 2 kts 265°
2026-05-04 13:03 1.48637 110.34406 66 ft 0 kts 258°
2026-05-04 13:05 1.48636 110.34399 77 ft 3 kts 258°
2026-05-04 13:05 1.48627 110.34366 69 ft 6 kts 250°
2026-05-04 13:06 1.48624 110.34359 74 ft 0 kts 250°
2026-05-04 13:17 1.48620 110.34348 77 ft 4 kts 250°
2026-05-04 13:18 1.48606 110.34309 76 ft 8 kts 250°
2026-05-04 13:18 1.48579 110.34255 68 ft 10 kts 229°
2026-05-04 13:18 1.48508 110.34254 69 ft 12 kts 158°
2026-05-04 13:18 1.48451 110.34276 83 ft 0 kts 158°
2026-05-04 13:19 1.48416 110.34290 84 ft 10 kts 158°
2026-05-04 13:20 1.48363 110.34312 90 ft 7 kts 147°
2026-05-04 13:20 1.48365 110.34358 89 ft 8 kts 69°
2026-05-04 13:20 1.48429 110.34520 88 ft 58 kts 69°
2026-05-04 13:20 1.48661 110.35111 66 ft 120 kts 68°
2026-05-04 13:21 1.49033 110.36019 215 ft 150 kts 68°
2026-05-04 13:21 1.49403 110.36957 803 ft 144 kts 69°
2026-05-04 13:21 1.49757 110.37907 1278 ft 149 kts 68°
2026-05-04 13:21 1.50134 110.38882 1778 ft 151 kts 66°
2026-05-04 13:22 1.50755 110.39773 2105 ft 165 kts 45°
2026-05-04 13:22 1.51570 110.40673 2361 ft 186 kts 48°
2026-05-04 13:22 1.52385 110.41642 2619 ft 207 kts 49°
2026-05-04 13:22 1.53281 110.42721 2945 ft 230 kts 49°
2026-05-04 13:23 1.54376 110.43989 3420 ft 252 kts 48°
2026-05-04 13:23 1.55578 110.45357 3983 ft 270 kts 48°
2026-05-04 13:23 1.56828 110.46782 4828 ft 275 kts 48°
2026-05-04 13:23 1.58092 110.48230 5729 ft 278 kts 48°
2026-05-04 13:24 1.59364 110.49694 6597 ft 281 kts 48°
2026-05-04 13:24 1.60648 110.51174 7434 ft 283 kts 48°
2026-05-04 13:24 1.61942 110.52664 8288 ft 284 kts 48°
2026-05-04 13:25 1.64546 110.55664 9896 ft 291 kts 49°
2026-05-04 13:25 1.65915 110.57241 10385 ft 306 kts 49°
2026-05-04 13:25 1.67363 110.58908 10588 ft 329 kts 49°
2026-05-04 13:25 1.68880 110.60654 10941 ft 342 kts 49°
2026-05-04 13:26 1.70447 110.62459 11623 ft 345 kts 49°
2026-05-04 13:26 1.72031 110.64282 12307 ft 349 kts 49°
2026-05-04 13:26 1.73628 110.66121 12984 ft 352 kts 49°
2026-05-04 13:26 1.75240 110.67979 13660 ft 355 kts 49°
2026-05-04 13:27 1.76868 110.69854 14268 ft 358 kts 50°
2026-05-04 13:27 1.78506 110.71740 14847 ft 361 kts 50°
2026-05-04 13:27 1.80160 110.73646 15403 ft 365 kts 50°
2026-05-04 13:27 1.81831 110.75571 15977 ft 368 kts 50°
2026-05-04 13:28 1.83512 110.77509 16515 ft 371 kts 50°
2026-05-04 13:28 1.85208 110.79462 17059 ft 374 kts 50°
2026-05-04 13:28 1.86825 110.81508 17581 ft 377 kts 53°
2026-05-04 13:28 1.88429 110.83586 18127 ft 379 kts 53°
2026-05-04 13:29 1.90050 110.85680 18588 ft 382 kts 53°
2026-05-04 13:29 1.91682 110.87788 19051 ft 385 kts 53°
2026-05-04 13:29 1.93325 110.89908 19483 ft 387 kts 53°
2026-05-04 13:29 1.94981 110.92044 19939 ft 390 kts 53°
2026-05-04 13:30 1.96647 110.94194 20368 ft 393 kts 53°
2026-05-04 13:30 1.98326 110.96361 20797 ft 395 kts 53°
2026-05-04 13:30 2.00016 110.98542 21210 ft 398 kts 53°
2026-05-04 13:30 2.01508 111.00468 21583 ft 401 kts 53°
2026-05-04 13:31 2.03220 111.02679 21992 ft 403 kts 53°
2026-05-04 13:31 2.04945 111.04905 22401 ft 406 kts 53°
2026-05-04 13:31 2.06679 111.07143 22800 ft 409 kts 53°
2026-05-04 13:31 2.08425 111.09398 23178 ft 412 kts 53°
2026-05-04 13:32 2.10186 111.11671 23552 ft 414 kts 53°
2026-05-04 13:32 2.11907 111.13893 23883 ft 416 kts 53°
2026-05-04 13:32 2.13684 111.16186 24221 ft 418 kts 53°
2026-05-04 13:32 2.15472 111.18495 24549 ft 420 kts 53°
2026-05-04 13:33 2.17263 111.20807 24877 ft 422 kts 53°
2026-05-04 13:33 2.19067 111.23137 25196 ft 424 kts 53°
2026-05-04 13:33 2.20876 111.25472 25513 ft 426 kts 53°
2026-05-04 13:33 2.22693 111.27819 25818 ft 428 kts 53°
2026-05-04 13:34 2.24517 111.30175 26116 ft 430 kts 53°
2026-05-04 13:34 2.26351 111.32543 26425 ft 431 kts 53°
2026-05-04 13:34 2.28191 111.34920 26711 ft 433 kts 53°
2026-05-04 13:34 2.30039 111.37307 27004 ft 435 kts 53°
2026-05-04 13:35 2.31935 111.39673 27278 ft 437 kts 49°
2026-05-04 13:35 2.36022 111.44212 27835 ft 440 kts 49°
2026-05-04 13:35 2.38073 111.46496 28105 ft 442 kts 49°
2026-05-04 13:36 2.40130 111.48789 28357 ft 444 kts 49°
2026-05-04 13:36 2.42196 111.51092 28604 ft 446 kts 49°
2026-05-04 13:36 2.44270 111.53404 28855 ft 447 kts 49°
2026-05-04 13:36 2.46352 111.55725 29096 ft 449 kts 49°
2026-05-04 13:37 2.48442 111.58054 29335 ft 451 kts 49°
2026-05-04 13:37 2.50536 111.60389 29571 ft 452 kts 49°
2026-05-04 13:37 2.52640 111.62733 29800 ft 454 kts 49°
2026-05-04 13:37 2.54038 111.64292 29957 ft 455 kts 49°
2026-05-04 13:38 2.56841 111.67417 30234 ft 457 kts 49°
2026-05-04 13:38 2.58967 111.69787 30421 ft 459 kts 49°
2026-05-04 13:38 2.61129 111.72197 30615 ft 461 kts 49°
2026-05-04 13:38 2.63271 111.74586 30811 ft 462 kts 49°
2026-05-04 13:39 2.65422 111.76985 31028 ft 463 kts 49°
2026-05-04 13:39 2.67573 111.79382 31288 ft 463 kts 49°
2026-05-04 13:39 2.69724 111.81782 31560 ft 463 kts 49°
2026-05-04 13:39 2.71695 111.83979 31800 ft 463 kts 49°
2026-05-04 13:40 2.73844 111.86376 32062 ft 463 kts 49°
2026-05-04 13:40 2.75991 111.88770 32323 ft 462 kts 49°
2026-05-04 13:40 2.78136 111.91163 32565 ft 462 kts 49°
2026-05-04 13:40 2.80285 111.93560 32810 ft 462 kts 49°
2026-05-04 13:41 2.82430 111.95953 33061 ft 462 kts 49°
2026-05-04 13:41 2.84575 111.98346 33288 ft 461 kts 49°
2026-05-04 13:41 2.86717 112.00736 33546 ft 461 kts 49°
2026-05-04 13:42 2.90744 112.05703 33996 ft 459 kts 56°
2026-05-04 13:42 2.92541 112.08344 34204 ft 459 kts 56°
2026-05-04 13:42 2.94346 112.10979 34405 ft 458 kts 56°
2026-05-04 13:42 2.96149 112.13604 34607 ft 458 kts 56°
2026-05-04 13:43 2.97952 112.16227 34801 ft 457 kts 56°
2026-05-04 13:43 2.99753 112.18848 34907 ft 457 kts 56°
2026-05-04 13:43 3.03349 112.24085 34944 ft 456 kts 56°
2026-05-04 13:44 3.06934 112.29308 34942 ft 456 kts 56°
2026-05-04 13:44 3.10518 112.34531 34754 ft 453 kts 56°
2026-05-04 13:45 3.12299 112.37126 34264 ft 452 kts 56°
2026-05-04 13:45 3.14083 112.39726 33575 ft 453 kts 56°
2026-05-04 13:45 3.15867 112.42326 32794 ft 454 kts 56°
2026-05-04 13:45 3.17657 112.44934 31987 ft 455 kts 56°
2026-05-04 13:46 3.19454 112.47553 31198 ft 457 kts 56°
2026-05-04 13:46 3.21254 112.50178 30417 ft 458 kts 56°
2026-05-04 13:46 3.23054 112.52802 29742 ft 455 kts 56°
2026-05-04 13:46 3.24835 112.55398 29106 ft 450 kts 56°
2026-05-04 13:47 3.26601 112.57973 28468 ft 446 kts 56°
2026-05-04 13:47 3.28346 112.60518 27844 ft 442 kts 56°
2026-05-04 13:47 3.30055 112.63009 27232 ft 438 kts 56°
2026-05-04 13:47 3.31768 112.65509 26641 ft 434 kts 56°
2026-05-04 13:48 3.33466 112.67985 26047 ft 430 kts 56°
2026-05-04 13:48 3.35152 112.70444 25481 ft 426 kts 57°
2026-05-04 13:48 3.36820 112.72878 24923 ft 423 kts 57°
2026-05-04 13:48 3.38476 112.75293 24376 ft 419 kts 57°
2026-05-04 13:49 3.40119 112.77691 23836 ft 416 kts 57°
2026-05-04 13:49 3.41749 112.80068 23262 ft 412 kts 57°
2026-05-04 13:49 3.43362 112.82422 22658 ft 408 kts 57°
2026-05-04 13:49 3.44968 112.84749 22067 ft 404 kts 56°
2026-05-04 13:50 3.46640 112.87000 21492 ft 401 kts 54°
2026-05-04 13:50 3.48330 112.89199 20931 ft 397 kts 53°
2026-05-04 13:50 3.50010 112.91379 20372 ft 394 kts 53°
2026-05-04 13:50 3.51666 112.93544 19828 ft 390 kts 54°
2026-05-04 13:51 3.53304 112.95698 19291 ft 387 kts 54°
2026-05-04 13:51 3.54921 112.97835 18763 ft 384 kts 54°
2026-05-04 13:51 3.56523 112.99955 18243 ft 380 kts 54°
2026-05-04 13:51 3.58111 113.02058 17665 ft 377 kts 54°
2026-05-04 13:52 3.61243 113.06207 16555 ft 370 kts 54°
2026-05-04 13:52 3.62788 113.08253 16013 ft 367 kts 54°
2026-05-04 13:52 3.64322 113.10285 15479 ft 364 kts 54°
2026-05-04 13:53 3.65842 113.12299 14963 ft 361 kts 54°
2026-05-04 13:53 3.67351 113.14297 14460 ft 358 kts 53°
2026-05-04 13:53 3.68845 113.16277 13955 ft 355 kts 53°
2026-05-04 13:54 3.71782 113.20169 12895 ft 350 kts 53°
2026-05-04 13:54 3.73242 113.22102 12380 ft 347 kts 53°
2026-05-04 13:54 3.76123 113.25921 11355 ft 341 kts 53°
2026-05-04 13:55 3.77366 113.27568 10902 ft 339 kts 53°
2026-05-04 13:55 3.80163 113.31274 10259 ft 323 kts 53°
2026-05-04 13:55 3.81485 113.33026 10144 ft 309 kts 53°
2026-05-04 13:56 3.82681 113.34611 10036 ft 296 kts 53°
2026-05-04 13:56 3.83900 113.36227 9814 ft 287 kts 53°
2026-05-04 13:56 3.86296 113.39405 8985 ft 284 kts 53°
2026-05-04 13:57 3.87484 113.40982 8594 ft 283 kts 53°
2026-05-04 13:57 3.88664 113.42546 8201 ft 281 kts 53°
2026-05-04 13:58 3.91841 113.47402 7026 ft 278 kts 68°
2026-05-04 13:58 3.93257 113.50981 6288 ft 275 kts 67°
2026-05-04 13:58 3.93972 113.52753 5899 ft 274 kts 67°
2026-05-04 13:59 3.94684 113.54512 5544 ft 272 kts 67°
2026-05-04 13:59 3.95388 113.56251 5323 ft 268 kts 67°
2026-05-04 13:59 3.96795 113.59732 5040 ft 268 kts 67°
2026-05-04 14:00 3.97493 113.61465 4708 ft 268 kts 66°
2026-05-04 14:00 3.98635 113.64291 4073 ft 266 kts 67°
2026-05-04 14:00 3.99328 113.66006 3724 ft 264 kts 67°
2026-05-04 14:01 4.00015 113.67708 3361 ft 263 kts 67°
2026-05-04 14:01 4.00695 113.69391 3172 ft 259 kts 67°
2026-05-04 14:01 4.02063 113.72781 3025 ft 261 kts 67°
2026-05-04 14:02 4.02746 113.74474 3029 ft 263 kts 67°
2026-05-04 14:02 4.03431 113.76171 3030 ft 263 kts 67°
2026-05-04 14:02 4.04114 113.77864 3031 ft 262 kts 67°
2026-05-04 14:02 4.04799 113.79561 3027 ft 263 kts 67°
2026-05-04 14:03 4.05484 113.81258 3026 ft 263 kts 67°
2026-05-04 14:03 4.06167 113.82952 3020 ft 262 kts 67°
2026-05-04 14:03 4.06849 113.84643 3023 ft 262 kts 67°
2026-05-04 14:03 4.07612 113.86292 3019 ft 256 kts 56°
2026-05-04 14:04 4.10112 113.88361 3023 ft 225 kts 27°
2026-05-04 14:04 4.11476 113.89022 3015 ft 211 kts 24°
2026-05-04 14:04 4.12748 113.89609 3030 ft 191 kts 25°
2026-05-04 14:05 4.14823 113.90578 3005 ft 145 kts 25°
2026-05-04 14:05 4.15755 113.91013 3007 ft 147 kts 25°
2026-05-04 14:05 4.16654 113.91432 2997 ft 138 kts 25°
2026-05-04 14:06 4.17513 113.91833 2849 ft 135 kts 25°
2026-05-04 14:06 4.18364 113.92230 2686 ft 135 kts 25°
2026-05-04 14:06 4.19208 113.92624 2523 ft 134 kts 25°
2026-05-04 14:06 4.20052 113.93017 2364 ft 133 kts 25°
2026-05-04 14:07 4.20895 113.93410 2190 ft 133 kts 25°
2026-05-04 14:07 4.21727 113.93799 2016 ft 131 kts 25°
2026-05-04 14:07 4.22563 113.94189 1850 ft 133 kts 25°
2026-05-04 14:07 4.23352 113.94556 1694 ft 132 kts 25°
2026-05-04 14:08 4.24181 113.94944 1511 ft 131 kts 26°
2026-05-04 14:08 4.25021 113.95335 1416 ft 134 kts 26°
2026-05-04 14:08 4.25866 113.95729 1173 ft 131 kts 26°
2026-05-04 14:08 4.26634 113.96088 1020 ft 132 kts 26°
2026-05-04 14:09 4.28319 113.96874 698 ft 133 kts 26°
2026-05-04 14:09 4.29158 113.97266 524 ft 132 kts 26°
2026-05-04 14:10 4.30819 113.98043 167 ft 131 kts 27°
2026-05-04 14:10 4.31632 113.98428 71 ft 119 kts 26°
2026-05-04 14:10 4.32174 113.98680 65 ft 66 kts 25°
2026-05-04 14:10 4.32365 113.98736 58 ft 16 kts 339°
2026-05-04 14:11 4.32421 113.98659 64 ft 11 kts 293°
2026-05-04 14:11 4.32445 113.98515 62 ft 10 kts 220°
2026-05-04 14:11 4.32403 113.98467 59 ft 8 kts 281°
2026-05-04 14:12 4.32424 113.98422 56 ft 7 kts 293°
2026-05-04 14:12 4.32431 113.98406 61 ft 0 kts 296°